Weather History for Middletown, PA

Change the Weather History Date:

Friday, July 25, 2014

  Actual Average Record
Temperature  
Mean Temperature 69 °F 76 °F  
Max Temperature 82 °F 85 °F 99 °F (1940)
Min Temperature 56 °F 66 °F 53 °F (1953)
Degree Days  
Heating Degree Days 0 0  
Month to date heating degree days 0 0  
Since 1 June heating degree days 1 18  
Since 1 July heating degree days 0 0  
Cooling Degree Days 4 11  
Month to date cooling degree days 303 273  
Year to date cooling degree days 610 551  
Since 1 June cooling degree days 550 486  
Growing Degree Days 20 (Base 50)    
Moisture  
Dew Point 52 °F    
Average Humidity 51    
Maximum Humidity 75    
Minimum Humidity 26    
Precipitation  
Precipitation 0.00 in 0.14 in 2.38 in (2011)
Month to date precipitation 2.57 3.76  
Year to date precipitation 27.99 22.89  
Sea Level Pressure  
Sea Level Pressure 30.02 in    
Wind  
Wind Speed 5 mph (NW)    
Max Wind Speed 12 mph    
Max Gust Speed 15 mph    
Visibility 10 miles    
Events      
T = Trace of Precipitation, MM = Missing Value Source: NWS Daily Summary

Daily Weather History Graph

Daily Weather History Graph

Search for Another Location

Airport:

Trip Planner

Search our weather history database for the weather conditions in past years. The results will help you decide how hot, cold, wet, or windy it might be!

Date:

Astronomy

Jul. 25, 2014 Rise Set
Actual Time 5:58 AM EDT 8:28 PM EDT
Civil Twilight 5:27 AM EDT 8:59 PM EDT
Nautical Twilight 4:48 AM EDT 9:37 PM EDT
Astronomical Twilight 4:05 AM EDT 10:20 PM EDT
Moon 4:56 AM EDT (7/25) 7:23 PM EDT (7/25)
Length of Visible Light 15h 31m
Length of Day
14h 29m
Waning Crescent, 1% of the Moon is Illuminated
Jul 25
Waning Crescent
Jul 26
New
Aug 3
First Quarter
Aug 10
Full
Aug 17
Last Quarter

Hourly Weather History & Observations

Time (EDT) Temp. Heat Index Dew Point Humidity Pressure Visibility Wind Dir Wind Speed Gust Speed Precip Events Conditions
12:56 AM 62.1 °F - 52.0 °F 70% 29.99 in 10.0 mi NNW 4.6 mph - N/A   Clear
1:56 AM 61.0 °F - 51.1 °F 70% 30.01 in 10.0 mi NW 4.6 mph - N/A   Clear
2:56 AM 62.1 °F - 52.0 °F 70% 30.00 in 10.0 mi North 3.5 mph - N/A   Clear
3:56 AM 60.1 °F - 51.1 °F 72% 30.00 in 10.0 mi North 3.5 mph - N/A   Clear
4:56 AM 60.1 °F - 50.0 °F 69% 30.01 in 10.0 mi Calm Calm - N/A   Clear
5:56 AM 59.0 °F - 51.1 °F 75% 30.04 in 10.0 mi NW 8.1 mph - N/A   Partly Cloudy
6:56 AM 62.1 °F - 51.1 °F 67% 30.05 in 10.0 mi NW 9.2 mph - N/A   Partly Cloudy
7:56 AM 64.9 °F - 50.0 °F 58% 30.06 in 10.0 mi NNW 8.1 mph - N/A   Clear
8:56 AM 66.9 °F - 51.1 °F 57% 30.08 in 10.0 mi WNW 8.1 mph - N/A   Clear
9:56 AM 70.0 °F - 53.1 °F 55% 30.07 in 10.0 mi West 9.2 mph - N/A   Clear
10:56 AM 72.0 °F - 53.1 °F 51% 30.06 in 10.0 mi West 6.9 mph - N/A   Partly Cloudy
11:56 AM 75.0 °F - 53.1 °F 46% 30.05 in 10.0 mi West 3.5 mph - N/A   Partly Cloudy
12:56 PM 77.0 °F - 52.0 °F 42% 30.04 in 10.0 mi West 5.8 mph - N/A   Partly Cloudy
1:56 PM 78.1 °F - 48.0 °F 35% 30.02 in 10.0 mi West 8.1 mph - N/A   Partly Cloudy
2:56 PM 80.1 °F - 48.9 °F 34% 30.00 in 10.0 mi West 6.9 mph - N/A   Partly Cloudy
3:56 PM 81.0 °F - 48.9 °F 33% 30.00 in 10.0 mi West 5.8 mph - N/A   Scattered Clouds
4:56 PM 80.1 °F - 42.1 °F 26% 29.99 in 10.0 mi WNW 3.5 mph - N/A   Scattered Clouds
5:56 PM 80.1 °F - 48.0 °F 32% 29.99 in 10.0 mi NW 5.8 mph - N/A   Partly Cloudy
6:56 PM 80.1 °F 80.1 °F 55.0 °F 42% 29.99 in 10.0 mi Calm Calm - N/A   Partly Cloudy
7:56 PM 73.9 °F - 57.9 °F 57% 30.00 in 10.0 mi Calm Calm - N/A   Scattered Clouds
8:56 PM 69.1 °F - 59.0 °F 70% 30.00 in 10.0 mi South 3.5 mph - N/A   Scattered Clouds
9:56 PM 66.0 °F - 57.0 °F 73% 30.00 in 10.0 mi ESE 4.6 mph - N/A   Scattered Clouds
10:56 PM 68.0 °F - 57.0 °F 68% 30.00 in 10.0 mi ENE 3.5 mph - N/A   Scattered Clouds
11:56 PM 64.9 °F - 55.9 °F 73% 30.00 in 10.0 mi East 3.5 mph - N/A   Mostly Cloudy